Regional Weather Roundup
Issued by NWS Wakefield, VA

Home | Current Version | Previous Version | Graphics & Text | Print | Product List | Glossary On
Versions: 1 2 3 4 5 6 7 8 9 10 11 12 13 14 15 16 17 18 19 20 21 22 23 24 25 26 27 28 29 30 31 32 33 34 35 36 37 38 39 40 41 42 43 44 45 46 47 48 49 50
000
ASUS41 KAKQ 231015
RWRAKQ

REGIONAL WEATHER ROUNDUP
NATIONAL WEATHER SERVICE WAKEFIELD VA
600 AM EDT WED MAY 23 2018

Note: "fair" indicates few or no clouds below 12,000 feet with no
significant weather and/or obstructions to visibility. * = Denotes
station may not report precipitation (e.g., rain,snow,etc.),
thunder or fog.

VAZ042-051-052>054-056-231100-
NORTHERN VIRGINIA

CITY           SKY/WX    TMP DP  RH WIND       PRES   REMARKS
WASH NATIONAL  MOCLDY    68  66  93 SW3       29.93S
DULLES         MOCLDY    66  66 100 CALM      29.94R
FORT BELVOIR   FOG       64  64 100 CALM      29.93S VSB 1/2
QUANTICO       FAIR      68  68 100 CALM      29.94R
FREDERICKSBRG* FAIR      68  68 100 CALM      29.93R
STAFFORD*      FOG       65  65 100 CALM      29.97R VSB 1/4
WARRENTON      NOT AVBL
CULPEPER*      FOG       64  62  95 CALM      29.95S VSB 1/2
MANASSAS*      FAIR      64  64 100 CALM      29.94R
LEESBURG*      FOG       61  61 100 W3        29.96R VSB 3/4
WINCHESTER     FAIR      63  61  94 CALM      29.98R
FRONT ROYAL*   FAIR     N/A N/A N/A S5        29.94S
LURAY*         FAIR      63  63 100 CALM      29.97R
$$

VAZ048-049-060>072-079>083-231100-
CENTRAL AND SOUTH CENTRAL VIRGINIA

CITY           SKY/WX    TMP DP  RH WIND       PRES   REMARKS
RICHMOND       MOCLDY    69  67  93 SW6       29.95R
CHESTERFIELD*  FAIR      69  67  93 SW6       29.96R
PETERSBURG*    FAIR      69  66  90 SW6       29.97S
HANOVER        FAIR      69  68  96 SW5       29.96R
TAPPAHANNOCK*  FAIR      69  68  98 SW5       29.95S
QUINTON*       FAIR      69  69 100 CALM      29.94R
CHARLOTTSVILLE FAIR      68  65  90 S5        29.93S
GORDONSVILLE*  FAIR      65  65 100 CALM      29.94R
ORANGE*        FAIR      64  63  94 CALM      29.94R
LOUISA*        FAIR      66  65  97 S5        29.98F
BUMPASS*       FAIR      66  65  95 SW5       29.94F
FARMVILLE*     FAIR     N/A N/A N/A SW5       29.96R
CREWE*         FAIR      69  69 100 SW5       29.97R
FORT PICKETT*  FAIR      69  69 100 SW10      29.97S
CHASE CITY*    FAIR      69  69 100 CALM      30.00R
CLARKSVILLE*   FAIR      70  70 100 SW5       30.00S
SOUTH HILL*    FAIR      69  68  97 S6        30.05S
LAWRENCEVILLE* FAIR      68  67  96 SW3       29.99S
EMPORIA*       FAIR      68  66  94 CALM      30.01R
$$

VAZ088>098-231100-
SOUTHEAST VIRGINIA

CITY           SKY/WX    TMP DP  RH WIND       PRES   REMARKS
NORFOLK        FAIR      73  69  87 SW10      29.97R
VIRGINIA BEACH FAIR      72  69  90 SW13      29.97R
NORFOLK NAVAL  FAIR      73  67  81 SW9       29.98R
WEST POINT*    FAIR      71  68  91 SW3       29.96R
SALUDA*        FAIR      70  70 100 SW5       29.95R
NEWPORT NEWS   FAIR      73  67  81 SW13      29.96R
LANGLEY AFB    FAIR      73  69  88 SW17      29.96S
FORT EUSTIS    FAIR      72  68  89 SW8G16    29.94R
WILLIAMSBURG*  FAIR      73  68  83 SW8       29.97R
HR EXEC AP*    FAIR      71  68  90 SW8       29.99R
FRANKLIN*      FAIR      70  69  96 SW7       29.99R
US460-WAKEFLD  FAIR      71  67  87 SW9       29.97R
$$

VAZ020-022-025-037-045-231100-
WEST CENTRAL AND SOUTHWEST VIRGINIA

CITY           SKY/WX    TMP DP  RH WIND       PRES   REMARKS
STAUNTON*      FAIR      65  63  90 S6        30.00R
WAYNESBORO*    FAIR      66  65  94 SW7G16    29.99S
HOT SPRINGS VA FOG       59  59 100 W20G25    30.10S VSB<1/4
LYNCHBURG      FAIR      65  64  97 SW5       30.00S
DANVILLE       FAIR      69  68  96 SW6       30.02R
SOUTH BOSTON*  FAIR      70  68  95 SW6       30.00R
MARTINSVILLE   FAIR      67  65  91 CALM      30.06R
ROANOKE        FAIR      66  63  90 W3        30.04S
BLACKSBURG     FOG       63  63 100 CALM      30.11F VSB 1
DUBLIN*        MOCLDY    63  63 100 SW6       30.10S
MARION*        CLOUDY    64  64  99 CALM      30.14S FOG
HILLSVILLE*    FOG       60  59  97 S3        30.11R VSB 1/2
RICHLANDS*     CLOUDY    63  32  31 CALM      30.14R
WISE*          FAIR      63  63 100 CALM      30.15R
ABINGDON*      CLOUDY    65  65 100 CALM      30.11S FOG
$$

MDZ021>025-VAZ099-100-231100-
SOUTHERN MARYLAND AND THE DELMARVA PENINSULA

CITY           SKY/WX    TMP DP  RH WIND       PRES   REMARKS
PATUXENT RIVER MOCLDY    69  66  90 CALM      29.93R
BAY BRIDGE APT FAIR      68  66  94 S5        29.92S
LEONARDTOWN    FAIR      66  64  94 CALM      29.95S
DOVER          MOCLDY    66  66 100 SW3       29.91S
GEORGETOWN     FAIR      68  66  93 SW5       29.92F
EASTON         NOT AVBL
CAMBRIDGE      CLEAR     68  68 100 CALM      29.93S
SALISBURY      MOCLDY    70  69  97 SW7       29.93S
TANGIER        FAIR      72  72 100 SW10      29.94R
OCEAN CITY     FAIR      67  67 100 SW3       29.94S
WALLOPS ISLAND FAIR      72  70  93 SW6       29.94S
ACCOMACK*      FAIR      72  69  93 SW9       29.95R
$$

NCZ012>017-030>032-231100-
NORTH CENTRAL AND EASTERN NORTH CAROLINA

CITY           SKY/WX    TMP DP  RH WIND       PRES   REMARKS
ROANOKE RAPIDS   N/A     70  70 100 CALM      30.01R
RALEIGH        MOCLDY    69  67  93 SW8       30.04S
ELIZABETH CITY FAIR      72  71  97 SW10      30.00F
AHOSKIE*       FAIR      69  69 100 CALM      30.01S
EDENTON*       CLOUDY    73  71  91 SW13      30.02F
CURRITUCK*     NOT AVBL
KILL DEVIL HLS FAIR      71  69  92 SW8       30.01S
MANTEO         FAIR      71  69  92 W13       30.03S
CAPE HATTERAS  FAIR      72  71  97 W9        30.06S
TARBORO*       NOT AVBL
GOLDSBORO      FAIR      70  68  95 SW7       30.04S
WASHINGTON     MOCLDY    69  68  96 SW3       30.05S
GREENVILLE     FAIR      70  70 100 SW6       30.06R
NEW BERN       FAIR      69  69 100 SW6       30.07S
WILMINGTON     CLOUDY    72  69  90 CALM      30.07S
$$

VAZ048-231100-
ELSEWHERE

CITY           SKY/WX    TMP DP  RH WIND       PRES   REMARKS
HARRISBURG PA  FOG       63  62  97 CALM      29.93R VSB 1/2
BALTIMORE      MOCLDY    64  64 100 W3        29.92R FOG
ANNAPOLIS        N/A    N/A N/A N/A MISG      29.91S
ANDREWS AFB    FAIR      67  66  99 SW6       29.93R
PHILADELPHIA   FOG       61  61 100 E6        29.93R VSB 1
HENDERSON NC   FAIR      66  64  91 SW8       30.02S
GREENSBORO     MOCLDY    68  67  96 SW6       30.04S
ROCKY MOUNT    FAIR      69  68  96 S8        30.04R
$$

VAZ100-231100-
MARINE

STATION/POSITION TIME  TEMP    WIND        PRES    WAVE   SWELL
                       AIR SEA DIR/SP/G            HT/PER HT/PER
                 (UTC) (F)     (DEG/KT/KT) (MB)    (FT/S) (FT/S)
BRANDYWINE LGT   0936   67     300/  5/  5 1013.5R
CAPE MAY NJ      0936   65 63  140/  2/  2 1012.5F
LEWES DE         0936   68 65  230/  5/  8 1012.7F
15NM E FENWICK I 0950   62 62  210/ 12/ 14 1013.5F   2/ 8   2/ 8
OCEAN-CITY-INLET 0936   66 62  190/  5/  5 1014.1S
WACHAPREAGUE VA  0936   71 73  220/  6/  9 1014.2R
THOMAS POINT MD  1000   68 68  180/  6/  7 1013.9F
GOOSES REEF MD   1000   69     240/  6/  8 1013.9    0
COVE POINT MD    0936   69     210/  1/  5 1014.1F
SOLOMONS ISLAND  0936   69 70  210/  2/  4 1013.3F
BISHOPS HEAD MD  0936   71 74  260/  5/  8 1014.3R
PINEY POINT MD   0948          280/  4/  5   N/A
POTOMAC MD       1000   71 71  260/  8/ 10 1013.0    1/ 2
CAMBRIDGE MD     0936   68 72              1014.2F
LEWISETTA VA     0936   71 73  260/  7/ 10 1013.7R
RAPPAHANNOCK LGT 0948          220/ 14/ 16 1014.7R
STINGRAY PT      1000   72 71  260/ 12/ 16 1017.2    1/ 2
YORK RVR RNG VA  0948   73     260/ 16/ 19 1014.7R
YORKTOWN VA      0948   72 73  230/ 10/ 12 1014.0R
DOMINION TERM VA 0948   74     240/ 12/ 14 1015.1R
KIPTOPEKE VA     0948          240/ 12/ 14   N/A
CAPE HENRY VA    0948   73     220/  8/ 16   N/A
WILLOUBY STN VA  0948          240/ 18/ 19   N/A
S CRANEY ISL VA  0948   73     240/  7/ 14 1014.7R
CAPE HENRY BUOY  1000      67                N/A     3/ 8
1ST LANDING BUOY 1000   72 71  240/ 14/ 16 1014.5    1/ 3
64NM E OF VA BCH 0950   70 67  230/ 14/ 16 1016.0R   4/ 5   2/ 8
DUCK PIER NC     0948   73 65  230/ 16/ 20 1015.8F
44100 DUCK FRF   0945      67                N/A     3/ 8
44056 DUCK FRF   1000      67                N/A     2/ 8
OREGON INLET NC  0942   74 77  220/ 17/ 20 1016.6S
HATTERAS NC      0948   72 75  230/  9/ 13 1017.5R
DIAMOND SHLS NC  1000   75 74  240/ 14/ 17 1018.3
CAPE LOOKOUT NC  1000          230/  9/ 12 1018.7R
$$



USA.gov is the U.S. government's official web portal to all federal, state and local government web resources and services.